sat.trackr.live / text

‹ back to catalog

STARLINK-30382

NORAD 57786 · 2023-134R

PAYLOAD ACTIVE UNKNOWN

§ Identity

Operator
Country
US
Launch date
2023-09-04
Launch site
AFETR
Launch vehicle
Mass (kg)
RCS (m²)

Purposes: comms

External: N2YO · Heavens-Above · Gunter

§ Orbital elements

Epoch: 2026-05-25T05:06:53.357184Z

Period
94.27 min
Inclination
43.0021°
Eccentricity
0.0001378
Mean motion
15.27578091 rev/d
Perigee alt
482.1 km
Apogee alt
484.0 km
Semi-major
6,861.2 km
B*
3.0672e-5
RAAN
122.0147°
Arg perigee
265.9393°
Mean anomaly
94.1301°
Rev number
15,121

§ Raw data

STARLINK-303821 57786U 23134R   26145.21311756  .00000582  00000+0  30672-4 0  99962 57786  43.0021 122.0147 0001378 265.9393  94.1301 15.27578091151211

JSON: /api/v1/satellites/57786 · /tle

For live sub-satellite position, see the globe view (requires WebGL).

§ Visibility from observer

Set your observer location to see the next 7 days of passes ≥ 10°. The values pass through the URL so the page stays shareable.

No JS? Fill the form by hand. The geolocation button needs JavaScript.